Date String (YYYY-MM-DD hh:mm:ss) UTC,Instrument flags,absolute air pressure of the measurement (hPa),sample flow rate (lpm),inlet stack bypass flow (lpm),air temperature of the measurement (°C),ambient temperature measured by the external sensor (°C),aerosol sample conditioner tube jacket temperature (°C),OPC LED temperature (°C),internal box temperature (°C),relative humidity of the measurement (%),span deviation,mass concentration of particles derived from Lorenz-Mie calculation of OPC scattering (μg/m³),mass concentration of particles derived from Lorenz-Mie calculation of OPC scattering (μg/m³),mass concentration of particles derived from Lorenz-Mie calculation of OPC scattering (μg/m³)
DateTimeUTC,F1_M11,P_M11,Q1_M11,Q2_M11,T1_M11,T2_M11,T3_M11,T4_M11,T5_M11,U1_M11,ZSPAN_M11,X0_M11,X2_M11,X1_M11
2024-04-03 01:00:00,SystemResetWarning,0830.7,5.00,000.00,024.6,023.8,000.0,033.0,026.4,11.7,0000.0,0004.92,0002.73,0001.67
2024-04-03 01:01:00,SystemResetWarning,0830.8,5.00,000.00,024.6,023.8,000.0,033.0,026.4,11.8,0000.0,0004.86,0002.71,0001.67
2024-04-03 01:02:00,SystemResetWarning,0830.7,5.00,000.00,024.6,023.8,000.0,033.0,026.4,11.7,0000.0,0005.17,0002.81,0001.68
2024-04-03 01:03:00,SystemResetWarning,0830.7,5.00,000.00,024.6,023.8,000.0,033.0,026.4,11.6,0000.0,0005.36,0002.85,0001.68
2024-04-03 01:04:00,SystemResetWarning,0830.7,5.00,000.00,024.6,023.8,000.0,033.0,026.4,11.4,0000.0,0005.47,0002.88,0001.69
2024-04-03 01:05:00,SystemResetWarning,0830.7,5.00,000.00,024.6,023.8,000.0,033.0,026.4,11.2,0000.0,0005.95,0002.92,0001.67
2024-04-03 01:06:00,SystemResetWarning,0830.7,5.00,000.00,024.6,023.8,000.0,033.0,026.4,11.5,0000.0,0006.11,0002.82,0001.66
2024-04-03 01:07:00,SystemResetWarning,0830.7,5.00,000.00,024.6,023.8,000.0,033.0,026.4,11.4,0000.0,0006.17,0002.81,0001.68
2024-04-03 01:08:00,SystemResetWarning,0830.8,5.00,000.00,024.6,023.8,000.0,033.0,026.4,11.3,0000.0,0007.94,0002.82,0001.69
2024-04-03 01:09:00,SystemResetWarning,0830.8,5.00,000.00,024.6,023.8,000.0,033.0,026.4,11.4,0000.0,0008.34,0002.76,0001.70
2024-04-03 01:10:00,SystemResetWarning,0830.8,5.00,000.00,024.6,023.8,000.0,033.0,026.4,11.6,0000.0,0008.23,0002.69,0001.69
2024-04-03 01:11:00,SystemResetWarning,0830.8,4.99,000.00,024.6,023.9,000.0,033.1,026.4,11.3,0000.0,0008.23,0002.69,0001.68
2024-04-03 01:12:00,SystemResetWarning,0830.8,5.00,000.00,024.6,023.9,000.0,033.1,026.4,11.4,0000.0,0008.29,0002.72,0001.68
2024-04-03 01:13:00,SystemResetWarning,0830.8,4.99,000.00,024.6,023.9,000.0,033.1,026.4,11.7,0000.0,0008.41,0002.70,0001.67
2024-04-03 01:14:00,SystemResetWarning,0830.8,5.00,000.00,024.6,023.9,000.0,033.1,026.4,11.9,0000.0,0008.40,0002.69,0001.67
2024-04-03 01:15:00,SystemResetWarning,0830.8,5.02,000.00,024.6,023.9,000.0,033.1,026.5,12.0,0000.0,0008.44,0002.69,0001.67
2024-04-03 01:16:00,SystemResetWarning,0830.8,5.00,000.00,024.6,023.9,000.0,033.1,026.5,12.1,0000.0,0008.35,0002.64,0001.67
2024-04-03 01:17:00,SystemResetWarning,0830.9,4.99,000.00,024.6,023.9,000.0,033.1,026.5,12.0,0000.0,0008.81,0002.68,0001.69
2024-04-03 01:18:00,SystemResetWarning,0830.8,5.00,000.00,024.7,023.9,000.0,033.1,026.5,12.5,0000.0,0009.57,0002.62,0001.67
2024-04-03 01:19:00,SystemResetWarning,0830.9,5.00,000.00,024.7,024.0,000.0,033.1,026.5,12.5,0000.0,0008.91,0002.66,0001.68
2024-04-03 01:20:00,SystemResetWarning,0830.9,4.99,000.00,024.7,024.0,000.0,033.1,026.5,12.6,0000.0,0007.87,0002.69,0001.68
2024-04-03 01:21:00,SystemResetWarning,0830.9,4.99,000.00,024.7,024.0,000.0,033.1,026.5,12.2,0000.0,0008.38,0002.76,0001.68
2024-04-03 01:22:00,SystemResetWarning,0830.9,5.00,000.00,024.7,024.0,000.0,033.1,026.5,12.3,0000.0,0008.51,0002.72,0001.69
2024-04-03 01:23:00,SystemResetWarning,0830.9,5.00,000.00,024.7,024.0,000.0,033.1,026.5,12.0,0000.0,0008.71,0002.68,0001.69
2024-04-03 01:24:00,SystemResetWarning,0830.9,5.00,000.00,024.7,024.0,000.0,033.1,026.5,11.5,0000.0,0008.79,0002.67,0001.69
2024-04-03 01:25:00,SystemResetWarning,0830.9,5.01,000.00,024.7,024.0,000.0,033.1,026.5,10.9,0000.0,0008.73,0002.70,0001.68
2024-04-03 01:26:00,SystemResetWarning,0830.9,5.01,000.00,024.7,024.0,000.0,033.2,026.5,11.0,0000.0,0008.68,0002.70,0001.69
2024-04-03 01:27:00,SystemResetWarning,0830.9,5.00,000.00,024.7,024.0,000.0,033.2,026.5,11.9,0000.0,0008.75,0002.78,0001.71
2024-04-03 01:28:00,SystemResetWarning,0830.9,5.00,000.00,024.7,024.0,000.0,033.2,026.5,11.4,0000.0,0008.89,0002.77,0001.71
2024-04-03 01:29:00,SystemResetWarning,0830.9,5.00,000.00,024.7,024.0,000.0,033.2,026.5,11.4,0000.0,0007.89,0002.78,0001.69
2024-04-03 01:30:00,SystemResetWarning,0830.9,5.00,000.00,024.7,024.0,000.0,033.2,026.6,12.1,0000.0,0007.72,0002.77,0001.69
2024-04-03 01:31:00,SystemResetWarning,0830.9,5.01,000.00,024.7,024.0,000.0,033.2,026.5,12.1,0000.0,0007.92,0002.82,0001.71
2024-04-03 01:32:00,SystemResetWarning,0830.9,5.00,000.00,024.7,024.0,000.0,033.2,026.6,11.6,0000.0,0007.84,0002.83,0001.72
2024-04-03 01:33:00,SystemResetWarning,0830.9,5.00,000.00,024.7,024.0,000.0,033.2,026.6,10.9,0000.0,0007.75,0002.91,0001.73
2024-04-03 01:34:00,SystemResetWarning,0830.9,5.00,000.00,024.7,024.0,000.0,033.2,026.6,10.5,0000.0,0007.82,0002.93,0001.72
2024-04-03 01:35:00,SystemResetWarning,0830.9,5.00,000.00,024.7,024.0,000.0,033.2,026.6,10.4,0000.0,0007.50,0002.91,0001.71
2024-04-03 01:36:00,SystemResetWarning,0831.0,5.00,000.00,024.7,024.0,000.0,033.2,026.6,10.2,0000.0,0007.41,0002.84,0001.69
2024-04-03 01:37:00,SystemResetWarning,0831.0,5.00,000.00,024.7,024.0,000.0,033.2,026.6,10.4,0000.0,0007.65,0002.82,0001.67
2024-04-03 01:38:00,SystemResetWarning,0830.9,5.00,000.00,024.7,024.0,000.0,033.2,026.6,10.5,0000.0,0007.65,0002.73,0001.63
2024-04-03 01:39:00,SystemResetWarning,0830.9,4.99,000.00,024.7,024.0,000.0,033.2,026.6,10.8,0000.0,0007.08,0002.72,0001.61
2024-04-03 01:40:00,SystemResetWarning,0830.9,4.99,000.00,024.8,024.0,000.0,033.2,026.6,10.9,0000.0,0006.84,0002.76,0001.61
2024-04-03 01:41:00,SystemResetWarning,0830.9,4.99,000.00,024.8,024.0,000.0,033.2,026.6,10.6,0000.0,0006.77,0002.75,0001.59
2024-04-03 01:42:00,SystemResetWarning,0830.9,5.00,000.00,024.8,024.0,000.0,033.2,026.6,10.7,0000.0,0006.68,0002.71,0001.57
2024-04-03 01:43:00,SystemResetWarning,0830.9,5.00,000.00,024.8,024.0,000.0,033.2,026.6,10.2,0000.0,0006.20,0002.70,0001.54
2024-04-03 01:44:00,SystemResetWarning,0830.9,5.00,000.00,024.8,024.0,000.0,033.2,026.6,10.7,0000.0,0005.88,0002.63,0001.52
2024-04-03 01:45:00,SystemResetWarning,0830.9,5.00,000.00,024.8,024.0,000.0,033.2,026.6,10.7,0000.0,0005.76,0002.57,0001.50
2024-04-03 01:46:00,SystemResetWarning,0830.9,5.00,000.00,024.8,024.0,000.0,033.2,026.6,10.7,0000.0,0005.39,0002.59,0001.49
2024-04-03 01:47:00,SystemResetWarning,0830.9,5.00,000.00,024.8,024.0,000.0,033.3,026.6,10.8,0000.0,0005.32,0002.57,0001.48
2024-04-03 01:48:00,SystemResetWarning,0830.9,5.00,000.00,024.8,024.0,000.0,033.3,026.6,10.8,0000.0,0005.23,0002.55,0001.48
2024-04-03 01:49:00,SystemResetWarning,0830.9,5.00,000.00,024.8,024.0,000.0,033.3,026.6,10.7,0000.0,0004.58,0002.53,0001.48
2024-04-03 01:50:00,SystemResetWarning,0830.9,5.00,000.00,024.8,024.0,000.0,033.3,026.6,10.5,0000.0,0004.57,0002.56,0001.48
2024-04-03 01:51:00,SystemResetWarning,0830.9,5.00,000.00,024.8,024.0,000.0,033.3,026.6,10.5,0000.0,0004.55,0002.52,0001.49
2024-04-03 01:52:00,SystemResetWarning,0830.9,4.99,000.00,024.8,024.0,000.0,033.3,026.6,10.6,0000.0,0004.50,0002.49,0001.48
2024-04-03 01:53:00,SystemResetWarning,0830.9,4.99,000.00,024.8,024.0,000.0,033.3,026.6,10.7,0000.0,0004.42,0002.48,0001.48
2024-04-03 01:54:00,SystemResetWarning,0830.9,5.00,000.00,024.8,024.0,000.0,033.3,026.6,10.8,0000.0,0004.18,0002.38,0001.47
2024-04-03 01:55:00,SystemResetWarning,0830.9,5.00,000.00,024.8,024.0,000.0,033.3,026.7,10.7,0000.0,0004.01,0002.31,0001.47
2024-04-03 01:56:00,SystemResetWarning,0830.9,5.00,000.00,024.8,024.0,000.0,033.3,026.6,10.9,0000.0,0004.10,0002.29,0001.47
2024-04-03 01:57:00,SystemResetWarning,0830.9,5.02,000.00,024.8,024.0,000.0,033.3,026.6,10.8,0000.0,0004.07,0002.26,0001.47
2024-04-03 01:58:00,SystemResetWarning,0830.9,5.01,000.00,024.8,024.0,000.0,033.3,026.6,10.9,0000.0,0004.11,0002.23,0001.47
2024-04-03 01:59:00,SystemResetWarning,0830.9,4.99,000.00,024.8,024.0,000.0,033.3,026.6,11.1,0000.0,0004.18,0002.24,0001.47
